This is the latest recevied weather packets stored in our database for station/object N5ATR. If no packets are shown the sender has not sent any weather packets the latest 10 day(s).
| Time | Temp. | Humidity | Pressure | Rain* | Wind** | Luminosity | Snow |
|---|---|---|---|---|---|---|---|
| 1777979855 | 9.44° C | 42% | 1011.7 hPa | 0 mm | - | 0 W/m² | - |
| 1777979551 | 10° C | 42% | 1011.8 hPa | 0 mm | - | 0 W/m² | - |
| 1777979247 | 10° C | 41% | 1011.8 hPa | 0 mm | - | 0 W/m² | - |
| 1777978945 | 10° C | 40% | 1011.7 hPa | 0 mm | - | 0 W/m² | - |
| 1777978641 | 10° C | 40% | 1011.6 hPa | 0 mm | - | 0 W/m² | - |
| 1777978337 | 10.56° C | 39% | 1011.7 hPa | 0 mm | - | 0 W/m² | - |
| 1777978034 | 11.11° C | 38% | 1011.7 hPa | 0 mm | - | 0 W/m² | - |
| 1777977731 | 11.11° C | 37% | 1011.7 hPa | 0 mm | - | 0 W/m² | - |
| 1777977427 | 10.56° C | 37% | 1011.8 hPa | 0 mm | - | 0 W/m² | - |
| 1777977125 | 10° C | 36% | 1011.7 hPa | 0 mm | - | 0 W/m² | - |
| 1777976822 | 10.56° C | 36% | 1011.3 hPa | 0 mm | - | 0 W/m² | - |
| 1777976520 | 11.11° C | 36% | 1011.2 hPa | 0 mm | - | 0 W/m² | - |
| 1777976219 | 11.11° C | 35% | 1011.6 hPa | 0 mm | - | 0 W/m² | - |
| 1777975914 | 11.11° C | 33% | 1011.4 hPa | 0 mm | - | 0 W/m² | - |
| 1777975611 | 11.67° C | 32% | 1011.6 hPa | 0 mm | - | 0 W/m² | - |
| 1777975308 | 12.22° C | 29% | 1011.3 hPa | 0 mm | - | 0 W/m² | - |
| 1777975004 | 12.78° C | 24% | 1010.9 hPa | 0 mm | - | 0 W/m² | - |
| 1777974702 | 12.22° C | 24% | 1010.8 hPa | 0 mm | - | 0 W/m² | - |
| 1777974397 | 12.22° C | 26% | 1011.1 hPa | 0 mm | - | 0 W/m² | - |
| 1777974094 | 11.67° C | 27% | 1011.1 hPa | 0 mm | - | 0 W/m² | - |
| 1777973790 | 11.67° C | 31% | 1011.3 hPa | 0 mm | - | 0 W/m² | - |
| 1777973487 | 11.67° C | 33% | 1011.3 hPa | 0 mm | - | 0 W/m² | - |
| 1777973184 | 12.22° C | 32% | 1011.3 hPa | 0 mm | - | 0 W/m² | - |
| 1777972883 | 11.67° C | 35% | 1010.9 hPa | 0 mm | - | 0 W/m² | - |
| 1777972579 | 11.67° C | 40% | 1011.2 hPa | 0 mm | - | 0 W/m² | - |
* Rain latest hour (hover to see other rain measurements)
** Current wind speed in m/s (hover to see current wind gust speed)